{"data":{"norad_id":60545,"epoch":"2026-05-25T04:01:39.522720Z","epoch_age_seconds":57589,"freshness":"FRESH","line1":"1 60545U 24149CF  26145.16781855  .00001749  00000+0  15923-3 0  9992","line2":"2 60545  97.6820 220.8538 0005963 153.2526 206.9004 14.96432739 96542","mean_motion":14.96432739,"eccentricity":0.0005963,"inclination_deg":97.682,"raan_deg":220.8538,"arg_perigee_deg":153.2526,"mean_anomaly_deg":206.9004,"bstar":0.00015923,"rev_number":9654,"period_min":96.228848946615,"perigee_km":573.78130981476,"apogee_km":582.07711437931,"semimajor_km":6956.066212097,"source":"CELESTRAK","updated_at":"2026-05-25T13:38:02.150442Z"}}